Saint Bonnet de Bellac- Haute Vienne - France
Donnes mto: mercredi, 08/08/2012
Date Horaire Temp. E. Hum. E. P.atmo. Pluie Vent Direction Direction Ensoleilleme Solaire P. de rose Temp au vent Rafales
08/08/2012 00:00 14,5 C 76 % 1022,4 hPa 0,0 mm 0,0 km/h (0 Bft) E-SE 112 0 min 0 W/m 10,3 C 14,5 C 0,0 km/h (0 Bft)
08/08/2012 00:10 14,6 C 77 % 1022,5 hPa 0,0 mm 0,0 km/h (0 Bft) SE 135 0 min 0 W/m 10,6 C 14,6 C 0,0 km/h (0 Bft)
08/08/2012 00:20 14,4 C 76 % 1022,5 hPa 0,0 mm 0,0 km/h (0 Bft) E-SE 112 0 min 0 W/m 10,2 C 14,4 C 0,0 km/h (0 Bft)
08/08/2012 00:30 14,1 C 77 % 1022,6 hPa 0,0 mm 1,1 km/h (1 Bft) E-SE 112 0 min 0 W/m 10,1 C 14,1 C 1,1 km/h (1 Bft)
08/08/2012 00:40 14,1 C 78 % 1022,5 hPa 0,0 mm 0,0 km/h (0 Bft) E-SE 112 0 min 0 W/m 10,3 C 14,1 C 0,0 km/h (0 Bft)
08/08/2012 00:50 14,0 C 79 % 1022,7 hPa 0,0 mm 0,0 km/h (0 Bft) E-SE 112 0 min 0 W/m 10,4 C 14,0 C 0,0 km/h (0 Bft)
08/08/2012 01:00 13,9 C 80 % 1022,6 hPa 0,0 mm 0,0 km/h (0 Bft) E 90 0 min 0 W/m 10,5 C 13,9 C 3,6 km/h (1 Bft)
08/08/2012 01:10 13,8 C 80 % 1022,6 hPa 0,0 mm 0,0 km/h (0 Bft) SE 135 0 min 0 W/m 10,4 C 13,8 C 0,0 km/h (0 Bft)
08/08/2012 01:20 13,6 C 80 % 1022,6 hPa 0,0 mm 0,0 km/h (0 Bft) E-SE 112 0 min 0 W/m 10,2 C 13,6 C 1,4 km/h (1 Bft)
08/08/2012 01:30 13,5 C 81 % 1022,6 hPa 0,0 mm 1,8 km/h (1 Bft) E-NE 67 0 min 0 W/m 10,3 C 13,5 C 4,0 km/h (1 Bft)
08/08/2012 01:40 13,4 C 81 % 1022,6 hPa 0,0 mm 1,1 km/h (1 Bft) E-SE 112 0 min 0 W/m 10,2 C 13,4 C 4,3 km/h (1 Bft)
08/08/2012 01:50 13,3 C 82 % 1022,5 hPa 0,0 mm 1,4 km/h (1 Bft) SE 135 0 min 0 W/m 10,3 C 13,3 C 4,3 km/h (1 Bft)
08/08/2012 02:00 13,2 C 82 % 1022,5 hPa 0,0 mm 0,0 km/h (0 Bft) E 90 0 min 0 W/m 10,2 C 13,2 C 0,0 km/h (0 Bft)
08/08/2012 02:10 13,1 C 82 % 1022,4 hPa 0,0 mm 1,1 km/h (1 Bft) E-NE 67 0 min 0 W/m 10,1 C 13,1 C 1,1 km/h (1 Bft)
08/08/2012 02:20 12,9 C 83 % 1022,4 hPa 0,0 mm 1,4 km/h (1 Bft) E-NE 67 0 min 0 W/m 10,1 C 12,9 C 1,4 km/h (1 Bft)
08/08/2012 02:30 12,8 C 83 % 1022,3 hPa 0,0 mm 0,0 km/h (0 Bft) E-SE 112 0 min 0 W/m 10,0 C 12,8 C 0,0 km/h (0 Bft)
08/08/2012 02:40 12,6 C 83 % 1022,3 hPa 0,0 mm 4,0 km/h (1 Bft) E-NE 67 0 min 0 W/m 9,8 C 12,6 C 8,3 km/h (2 Bft)
08/08/2012 02:50 12,6 C 84 % 1022,3 hPa 0,0 mm 0,0 km/h (0 Bft) E-SE 112 0 min 0 W/m 10,0 C 12,6 C 0,0 km/h (0 Bft)
08/08/2012 03:02 12,5 C 85 % 1022,2 hPa 0,0 mm 0,0 km/h (0 Bft) SE 135 0 min 0 W/m 10,0 C 12,5 C 0,0 km/h (0 Bft)
08/08/2012 03:10 12,4 C 85 % 1022,2 hPa 0,0 mm 0,0 km/h (0 Bft) E-NE 67 0 min 0 W/m 9,9 C 12,4 C 0,0 km/h (0 Bft)
08/08/2012 03:20 12,3 C 85 % 1022,2 hPa 0,0 mm 0,4 km/h (0 Bft) E 90 0 min 0 W/m 9,9 C 12,3 C 3,6 km/h (1 Bft)
08/08/2012 03:30 12,2 C 84 % 1022,1 hPa 0,0 mm 1,8 km/h (1 Bft) E 90 0 min 0 W/m 9,6 C 12,2 C 1,8 km/h (1 Bft)
08/08/2012 03:40 12,1 C 85 % 1022,1 hPa 0,0 mm 0,0 km/h (0 Bft) E-SE 112 0 min 0 W/m 9,7 C 12,1 C 0,0 km/h (0 Bft)
08/08/2012 03:50 11,9 C 85 % 1022,1 hPa 0,0 mm 0,0 km/h (0 Bft) E 90 0 min 0 W/m 9,5 C 11,9 C 0,0 km/h (0 Bft)
08/08/2012 04:00 11,7 C 85 % 1022,1 hPa 0,0 mm 0,7 km/h (0 Bft) E 90 0 min 0 W/m 9,3 C 11,7 C 4,0 km/h (1 Bft)
08/08/2012 04:10 11,5 C 85 % 1022,1 hPa 0,0 mm 0,0 km/h (0 Bft) E 90 0 min 0 W/m 9,1 C 11,5 C 0,0 km/h (0 Bft)
08/08/2012 04:20 11,4 C 86 % 1022,0 hPa 0,0 mm 2,5 km/h (1 Bft) E-SE 112 0 min 0 W/m 9,1 C 11,4 C 5,4 km/h (2 Bft)
08/08/2012 04:30 11,4 C 86 % 1022,0 hPa 0,0 mm 0,7 km/h (0 Bft) E 90 0 min 0 W/m 9,1 C 11,4 C 3,6 km/h (1 Bft)
08/08/2012 04:40 11,2 C 86 % 1022,0 hPa 0,0 mm 3,6 km/h (1 Bft) E 90 0 min 0 W/m 8,9 C 11,2 C 8,6 km/h (2 Bft)
08/08/2012 04:50 11,1 C 86 % 1022,0 hPa 0,0 mm 1,1 km/h (1 Bft) E-NE 67 0 min 0 W/m 8,8 C 11,1 C 4,3 km/h (1 Bft)
08/08/2012 05:00 10,9 C 86 % 1022,0 hPa 0,0 mm 0,4 km/h (0 Bft) E 90 0 min 0 W/m 8,7 C 10,9 C 0,4 km/h (0 Bft)
08/08/2012 05:10 10,8 C 86 % 1022,0 hPa 0,0 mm 2,2 km/h (1 Bft) E 90 0 min 0 W/m 8,6 C 10,8 C 7,2 km/h (2 Bft)
08/08/2012 05:20 10,8 C 87 % 1022,0 hPa 0,0 mm 1,1 km/h (1 Bft) E 90 0 min 0 W/m 8,7 C 10,8 C 3,6 km/h (1 Bft)
08/08/2012 05:30 10,7 C 87 % 1021,9 hPa 0,0 mm 0,7 km/h (0 Bft) E-SE 112 0 min 0 W/m 8,6 C 10,7 C 1,4 km/h (1 Bft)
08/08/2012 05:40 10,6 C 87 % 1021,9 hPa 0,0 mm 1,1 km/h (1 Bft) E 90 0 min 0 W/m 8,5 C 10,6 C 1,1 km/h (1 Bft)
08/08/2012 05:50 10,5 C 87 % 1021,8 hPa 0,0 mm 0,7 km/h (0 Bft) E-SE 112 0 min 0 W/m 8,4 C 10,5 C 0,7 km/h (0 Bft)
08/08/2012 06:00 10,4 C 87 % 1021,9 hPa 0,0 mm 1,8 km/h (1 Bft) E 90 0 min 0 W/m 8,3 C 10,4 C 3,6 km/h (1 Bft)
08/08/2012 06:10 10,3 C 87 % 1022,0 hPa 0,0 mm 0,0 km/h (0 Bft) E 90 0 min 0 W/m 8,2 C 10,3 C 0,0 km/h (0 Bft)
08/08/2012 06:20 10,3 C 88 % 1022,0 hPa 0,0 mm 1,1 km/h (1 Bft) E 90 0 min 0 W/m 8,4 C 10,3 C 1,1 km/h (1 Bft)
08/08/2012 06:30 10,3 C 88 % 1022,1 hPa 0,0 mm 1,4 km/h (1 Bft) E 90 0 min 0 W/m 8,4 C 10,3 C 1,4 km/h (1 Bft)
08/08/2012 06:40 10,4 C 88 % 1022,0 hPa 0,0 mm 4,7 km/h (1 Bft) E-SE 112 0 min 0 W/m 8,5 C 10,4 C 6,1 km/h (2 Bft)
08/08/2012 06:50 10,4 C 88 % 1022,0 hPa 0,0 mm 0,4 km/h (0 Bft) E-SE 112 0 min 0 W/m 8,5 C 10,4 C 0,4 km/h (0 Bft)
08/08/2012 07:00 10,4 C 88 % 1022,1 hPa 0,0 mm 0,0 km/h (0 Bft) E-SE 112 0 min 0 W/m 8,5 C 10,4 C 0,0 km/h (0 Bft)
08/08/2012 07:10 10,3 C 89 % 1022,0 hPa 0,0 mm 2,5 km/h (1 Bft) E-SE 112 0 min 0 W/m 8,6 C 10,3 C 6,8 km/h (2 Bft)
08/08/2012 07:20 10,4 C 89 % 1022,1 hPa 0,0 mm 1,8 km/h (1 Bft) E-SE 112 0 min 0 W/m 8,7 C 10,4 C 4,3 km/h (1 Bft)
08/08/2012 07:30 10,5 C 89 % 1022,1 hPa 0,0 mm 2,2 km/h (1 Bft) E-SE 112 0 min 0 W/m 8,8 C 10,5 C 3,2 km/h (1 Bft)
08/08/2012 07:40 10,6 C 89 % 1022,1 hPa 0,0 mm 1,1 km/h (1 Bft) E 90 0 min 0 W/m 8,9 C 10,6 C 4,0 km/h (1 Bft)
08/08/2012 07:50 10,7 C 89 % 1022,3 hPa 0,0 mm 1,1 km/h (1 Bft) E-SE 112 0 min 0 W/m 9,0 C 10,7 C 2,9 km/h (1 Bft)
08/08/2012 08:00 10,8 C 89 % 1022,3 hPa 0,0 mm 2,2 km/h (1 Bft) E-SE 112 0 min 0 W/m 9,1 C 10,8 C 4,0 km/h (1 Bft)
08/08/2012 08:10 11,1 C 89 % 1022,3 hPa 0,0 mm 4,0 km/h (1 Bft) E-SE 112 0 min 0 W/m 9,4 C 11,1 C 5,8 km/h (2 Bft)
08/08/2012 08:20 11,4 C 89 % 1022,4 hPa 0,0 mm 3,6 km/h (1 Bft) E 90 0 min 0 W/m 9,7 C 11,4 C 6,8 km/h (2 Bft)
08/08/2012 08:30 11,9 C 88 % 1022,4 hPa 0,0 mm 1,1 km/h (1 Bft) E-SE 112 0 min 0 W/m 10,0 C 11,9 C 4,0 km/h (1 Bft)
08/08/2012 08:40 12,2 C 88 % 1022,4 hPa 0,0 mm 0,0 km/h (0 Bft) E-NE 67 0 min 0 W/m 10,3 C 12,2 C 0,0 km/h (0 Bft)
08/08/2012 08:50 12,5 C 88 % 1022,5 hPa 0,0 mm 1,1 km/h (1 Bft) E-NE 67 0 min 0 W/m 10,6 C 12,5 C 4,3 km/h (1 Bft)
08/08/2012 09:00 12,8 C 88 % 1022,5 hPa 0,0 mm 2,2 km/h (1 Bft) E-NE 67 0 min 0 W/m 10,9 C 12,8 C 4,3 km/h (1 Bft)
08/08/2012 09:10 13,3 C 88 % 1022,5 hPa 0,0 mm 1,4 km/h (1 Bft) E-NE 67 0 min 0 W/m 11,4 C 13,3 C 4,0 km/h (1 Bft)
08/08/2012 09:20 13,8 C 87 % 1022,6 hPa 0,0 mm 0,4 km/h (0 Bft) E-NE 67 0 min 0 W/m 11,7 C 13,8 C 0,4 km/h (0 Bft)
08/08/2012 09:30 14,6 C 87 % 1022,5 hPa 0,0 mm 3,6 km/h (1 Bft) E-NE 67 0 min 0 W/m 12,5 C 14,6 C 4,0 km/h (1 Bft)
08/08/2012 09:40 15,4 C 85 % 1022,4 hPa 0,0 mm 1,1 km/h (1 Bft) E 90 0 min 0 W/m 12,9 C 15,4 C 4,0 km/h (1 Bft)
08/08/2012 09:50 16,6 C 84 % 1022,3 hPa 0,0 mm 2,9 km/h (1 Bft) E 90 0 min 0 W/m 13,9 C 16,6 C 6,5 km/h (2 Bft)
08/08/2012 10:00 17,9 C 79 % 1022,4 hPa 0,0 mm 0,0 km/h (0 Bft) E 90 0 min 0 W/m 14,2 C 17,9 C 0,0 km/h (0 Bft)
08/08/2012 10:10 19,3 C 74 % 1022,5 hPa 0,0 mm 2,9 km/h (1 Bft) E-NE 67 0 min 0 W/m 14,5 C 19,3 C 4,0 km/h (1 Bft)
08/08/2012 10:20 20,5 C 70 % 1022,5 hPa 0,0 mm 2,2 km/h (1 Bft) E-NE 67 0 min 0 W/m 14,8 C 20,5 C 6,1 km/h (2 Bft)
08/08/2012 10:30 21,5 C 65 % 1022,5 hPa 0,0 mm 2,2 km/h (1 Bft) NE 45 0 min 0 W/m 14,6 C 21,5 C 4,3 km/h (1 Bft)
08/08/2012 10:40 22,3 C 62 % 1022,5 hPa 0,0 mm 0,4 km/h (0 Bft) SE 135 0 min 0 W/m 14,7 C 22,3 C 4,0 km/h (1 Bft)
08/08/2012 10:50 23,2 C 60 % 1022,5 hPa 0,0 mm 3,6 km/h (1 Bft) E-NE 67 0 min 0 W/m 15,0 C 23,2 C 7,6 km/h (2 Bft)
08/08/2012 11:00 23,9 C 58 % 1022,4 hPa 0,0 mm 1,8 km/h (1 Bft) SE 135 0 min 0 W/m 15,1 C 23,9 C 1,8 km/h (1 Bft)
08/08/2012 11:10 24,6 C 55 % 1022,3 hPa 0,0 mm 5,8 km/h (2 Bft) E 90 0 min 0 W/m 14,9 C 24,6 C 13,0 km/h (3 Bft)
08/08/2012 11:20 25,0 C 51 % 1022,2 hPa 0,0 mm 11,5 km/h (2 Bft) E-NE 67 0 min 0 W/m 14,1 C 25,0 C 11,5 km/h (2 Bft)
08/08/2012 11:30 25,4 C 50 % 1022,3 hPa 0,0 mm 5,8 km/h (2 Bft) NE 45 0 min 0 W/m 14,2 C 25,4 C 7,9 km/h (2 Bft)
08/08/2012 11:40 25,6 C 49 % 1022,3 hPa 0,0 mm 5,4 km/h (2 Bft) E-SE 112 0 min 0 W/m 14,1 C 25,6 C 8,3 km/h (2 Bft)
08/08/2012 11:50 26,1 C 48 % 1022,4 hPa 0,0 mm 7,9 km/h (2 Bft) NE 45 0 min 0 W/m 14,2 C 26,1 C 10,8 km/h (2 Bft)
08/08/2012 12:00 26,5 C 46 % 1022,2 hPa 0,0 mm 8,6 km/h (2 Bft) E-NE 67 0 min 0 W/m 13,9 C 26,5 C 11,9 km/h (2 Bft)
08/08/2012 12:10 26,7 C 46 % 1022,2 hPa 0,0 mm 6,1 km/h (2 Bft) NE 45 0 min 0 W/m 14,1 C 26,7 C 9,4 km/h (2 Bft)
08/08/2012 12:20 26,9 C 45 % 1022,3 hPa 0,0 mm 8,3 km/h (2 Bft) NE 45 0 min 0 W/m 13,9 C 26,9 C 13,3 km/h (3 Bft)
08/08/2012 12:30 27,0 C 45 % 1022,2 hPa 0,0 mm 6,5 km/h (2 Bft) E-NE 67 0 min 0 W/m 14,0 C 27,0 C 11,9 km/h (2 Bft)
08/08/2012 12:40 27,2 C 45 % 1022,3 hPa 0,0 mm 10,1 km/h (2 Bft) E-NE 67 0 min 0 W/m 14,2 C 27,2 C 13,0 km/h (3 Bft)
08/08/2012 12:50 27,4 C 46 % 1022,3 hPa 0,0 mm 6,5 km/h (2 Bft) E-NE 67 0 min 0 W/m 14,7 C 27,4 C 11,2 km/h (2 Bft)
08/08/2012 13:00 27,8 C 43 % 1022,3 hPa 0,0 mm 6,8 km/h (2 Bft) NE 45 0 min 0 W/m 14,1 C 27,8 C 6,8 km/h (2 Bft)
08/08/2012 13:10 27,7 C 42 % 1022,2 hPa 0,0 mm 11,2 km/h (2 Bft) E-NE 67 0 min 0 W/m 13,6 C 27,7 C 14,8 km/h (3 Bft)
08/08/2012 13:20 27,6 C 43 % 1022,0 hPa 0,0 mm 7,2 km/h (2 Bft) N-NE 22 0 min 0 W/m 13,9 C 27,6 C 14,4 km/h (3 Bft)
08/08/2012 13:30 27,8 C 43 % 1022,0 hPa 0,0 mm 5,4 km/h (2 Bft) N-NE 22 0 min 0 W/m 14,1 C 27,8 C 10,1 km/h (2 Bft)
08/08/2012 13:40 28,0 C 42 % 1022,0 hPa 0,0 mm 4,7 km/h (1 Bft) NE 45 0 min 0 W/m 13,9 C 28,0 C 14,4 km/h (3 Bft)
08/08/2012 13:50 28,2 C 41 % 1022,0 hPa 0,0 mm 10,4 km/h (2 Bft) E-NE 67 0 min 0 W/m 13,7 C 28,2 C 10,8 km/h (2 Bft)
08/08/2012 14:00 28,2 C 41 % 1022,0 hPa 0,0 mm 2,9 km/h (1 Bft) E-SE 112 0 min 0 W/m 13,7 C 28,2 C 7,2 km/h (2 Bft)
08/08/2012 14:10 28,3 C 40 % 1022,0 hPa 0,0 mm 5,8 km/h (2 Bft) E-SE 112 0 min 0 W/m 13,4 C 28,3 C 6,8 km/h (2 Bft)
08/08/2012 14:20 28,7 C 41 % 1022,0 hPa 0,0 mm 1,1 km/h (1 Bft) N-NE 22 0 min 0 W/m 14,1 C 28,7 C 4,3 km/h (1 Bft)
08/08/2012 14:30 29,1 C 40 % 1021,8 hPa 0,0 mm 5,0 km/h (1 Bft) N 360 0 min 0 W/m 14,1 C 29,1 C 5,0 km/h (1 Bft)
08/08/2012 14:40 29,4 C 40 % 1021,8 hPa 0,0 mm 3,2 km/h (1 Bft) NE 45 0 min 0 W/m 14,4 C 29,4 C 6,5 km/h (2 Bft)
08/08/2012 14:50 29,6 C 40 % 1021,7 hPa 0,0 mm 7,6 km/h (2 Bft) NE 45 0 min 0 W/m 14,5 C 29,6 C 10,8 km/h (2 Bft)
08/08/2012 15:00 29,6 C 38 % 1021,7 hPa 0,0 mm 7,6 km/h (2 Bft) N 360 0 min 0 W/m 13,8 C 29,6 C 7,6 km/h (2 Bft)
08/08/2012 15:10 29,7 C 38 % 1021,6 hPa 0,0 mm 5,8 km/h (2 Bft) N-NE 22 0 min 0 W/m 13,8 C 29,7 C 10,1 km/h (2 Bft)
08/08/2012 15:20 29,8 C 38 % 1021,6 hPa 0,0 mm 2,5 km/h (1 Bft) NE 45 0 min 0 W/m 13,9 C 29,8 C 5,8 km/h (2 Bft)
08/08/2012 15:30 29,8 C 38 % 1021,5 hPa 0,0 mm 7,6 km/h (2 Bft) NE 45 0 min 0 W/m 13,9 C 29,8 C 10,4 km/h (2 Bft)
08/08/2012 15:40 29,8 C 38 % 1021,4 hPa 0,0 mm 6,5 km/h (2 Bft) E-NE 67 0 min 0 W/m 13,9 C 29,8 C 8,6 km/h (2 Bft)
08/08/2012 15:50 29,8 C 37 % 1021,4 hPa 0,0 mm 7,2 km/h (2 Bft) N-NE 22 0 min 0 W/m 13,5 C 29,8 C 8,6 km/h (2 Bft)
08/08/2012 16:00 29,7 C 38 % 1021,3 hPa 0,0 mm 2,2 km/h (1 Bft) E-NE 67 0 min 0 W/m 13,8 C 29,7 C 3,6 km/h (1 Bft)
08/08/2012 16:10 29,8 C 38 % 1021,2 hPa 0,0 mm 2,2 km/h (1 Bft) N-NE 22 0 min 0 W/m 13,9 C 29,8 C 4,0 km/h (1 Bft)
08/08/2012 16:20 29,8 C 37 % 1021,0 hPa 0,0 mm 7,6 km/h (2 Bft) NE 45 0 min 0 W/m 13,5 C 29,8 C 7,6 km/h (2 Bft)
08/08/2012 16:30 29,7 C 38 % 1020,9 hPa 0,0 mm 4,3 km/h (1 Bft) N-NE 22 0 min 0 W/m 13,8 C 29,7 C 6,5 km/h (2 Bft)
08/08/2012 16:40 29,5 C 37 % 1020,8 hPa 0,0 mm 6,5 km/h (2 Bft) E-NE 67 0 min 0 W/m 13,3 C 29,5 C 6,5 km/h (2 Bft)
08/08/2012 16:50 29,6 C 38 % 1020,8 hPa 0,0 mm 5,8 km/h (2 Bft) N 360 0 min 0 W/m 13,8 C 29,6 C 9,7 km/h (2 Bft)
08/08/2012 17:00 29,8 C 38 % 1020,7 hPa 0,0 mm 5,8 km/h (2 Bft) E-NE 67 0 min 0 W/m 13,9 C 29,8 C 7,2 km/h (2 Bft)
08/08/2012 17:10 29,9 C 36 % 1020,7 hPa 0,0 mm 3,2 km/h (1 Bft) N-NE 22 0 min 0 W/m 13,2 C 29,9 C 7,6 km/h (2 Bft)
08/08/2012 17:20 30,1 C 36 % 1020,7 hPa 0,0 mm 4,0 km/h (1 Bft) NE 45 0 min 0 W/m 13,4 C 30,1 C 6,5 km/h (2 Bft)
08/08/2012 17:30 30,1 C 36 % 1020,6 hPa 0,0 mm 4,3 km/h (1 Bft) NE 45 0 min 0 W/m 13,4 C 30,1 C 8,3 km/h (2 Bft)
08/08/2012 17:40 30,3 C 36 % 1020,6 hPa 0,0 mm 6,8 km/h (2 Bft) E-NE 67 0 min 0 W/m 13,5 C 30,3 C 8,3 km/h (2 Bft)
08/08/2012 17:50 30,3 C 36 % 1020,6 hPa 0,0 mm 0,0 km/h (0 Bft) E-NE 67 0 min 0 W/m 13,5 C 30,3 C 3,6 km/h (1 Bft)
08/08/2012 18:00 30,3 C 36 % 1020,4 hPa 0,0 mm 7,6 km/h (2 Bft) E 90 0 min 0 W/m 13,5 C 30,3 C 13,0 km/h (3 Bft)
08/08/2012 18:10 30,4 C 36 % 1020,3 hPa 0,0 mm 3,2 km/h (1 Bft) E-NE 67 0 min 0 W/m 13,6 C 30,4 C 4,3 km/h (1 Bft)
08/08/2012 18:20 30,5 C 36 % 1020,3 hPa 0,0 mm 1,8 km/h (1 Bft) E-NE 67 0 min 0 W/m 13,7 C 30,5 C 6,1 km/h (2 Bft)
08/08/2012 18:30 30,6 C 37 % 1020,3 hPa 0,0 mm 7,9 km/h (2 Bft) NE 45 0 min 0 W/m 14,2 C 30,6 C 11,5 km/h (2 Bft)
08/08/2012 18:40 30,6 C 37 % 1020,3 hPa 0,0 mm 4,3 km/h (1 Bft) NE 45 0 min 0 W/m 14,2 C 30,6 C 4,3 km/h (1 Bft)
08/08/2012 18:50 30,6 C 37 % 1020,2 hPa 0,0 mm 4,7 km/h (1 Bft) N-NE 22 0 min 0 W/m 14,2 C 30,6 C 8,6 km/h (2 Bft)
08/08/2012 19:00 30,4 C 37 % 1020,3 hPa 0,0 mm 6,5 km/h (2 Bft) N-NE 22 0 min 0 W/m 14,0 C 30,4 C 7,9 km/h (2 Bft)
08/08/2012 19:10 30,3 C 39 % 1020,3 hPa 0,0 mm 5,4 km/h (2 Bft) N-NE 22 0 min 0 W/m 14,8 C 30,3 C 5,4 km/h (2 Bft)
08/08/2012 19:20 30,3 C 39 % 1020,2 hPa 0,0 mm 6,5 km/h (2 Bft) NE 45 0 min 0 W/m 14,8 C 30,3 C 12,6 km/h (3 Bft)
08/08/2012 19:30 30,0 C 38 % 1020,0 hPa 0,0 mm 4,7 km/h (1 Bft) NE 45 0 min 0 W/m 14,1 C 30,0 C 8,6 km/h (2 Bft)
08/08/2012 19:40 29,8 C 39 % 1020,0 hPa 0,0 mm 4,3 km/h (1 Bft) NE 45 0 min 0 W/m 14,3 C 29,8 C 9,4 km/h (2 Bft)
08/08/2012 19:50 29,5 C 39 % 1020,1 hPa 0,0 mm 6,8 km/h (2 Bft) E-NE 67 0 min 0 W/m 14,1 C 29,5 C 9,4 km/h (2 Bft)
08/08/2012 20:00 29,1 C 39 % 1020,0 hPa 0,0 mm 3,2 km/h (1 Bft) NE 45 0 min 0 W/m 13,7 C 29,1 C 6,5 km/h (2 Bft)
08/08/2012 20:10 28,6 C 40 % 1020,0 hPa 0,0 mm 3,6 km/h (1 Bft) N-NE 22 0 min 0 W/m 13,7 C 28,6 C 4,0 km/h (1 Bft)
08/08/2012 20:20 27,9 C 42 % 1020,0 hPa 0,0 mm 3,6 km/h (1 Bft) N-NE 22 0 min 0 W/m 13,8 C 27,9 C 8,3 km/h (2 Bft)
08/08/2012 20:30 27,1 C 43 % 1020,1 hPa 0,0 mm 3,6 km/h (1 Bft) E-NE 67 0 min 0 W/m 13,4 C 27,1 C 3,6 km/h (1 Bft)
08/08/2012 20:40 26,2 C 45 % 1020,1 hPa 0,0 mm 0,7 km/h (0 Bft) NE 45 0 min 0 W/m 13,3 C 26,2 C 4,3 km/h (1 Bft)
08/08/2012 20:50 25,5 C 46 % 1020,2 hPa 0,0 mm 1,4 km/h (1 Bft) N-NE 22 0 min 0 W/m 13,0 C 25,5 C 4,0 km/h (1 Bft)
08/08/2012 21:00 24,8 C 47 % 1020,2 hPa 0,0 mm 4,7 km/h (1 Bft) NE 45 0 min 0 W/m 12,7 C 24,8 C 10,8 km/h (2 Bft)
08/08/2012 21:10 24,2 C 48 % 1020,2 hPa 0,0 mm 2,2 km/h (1 Bft) NE 45 0 min 0 W/m 12,5 C 24,2 C 6,5 km/h (2 Bft)
08/08/2012 21:20 23,6 C 49 % 1020,3 hPa 0,0 mm 0,0 km/h (0 Bft) NE 45 0 min 0 W/m 12,2 C 23,6 C 0,0 km/h (0 Bft)
08/08/2012 21:30 23,1 C 51 % 1020,3 hPa 0,0 mm 0,0 km/h (0 Bft) NE 45 0 min 0 W/m 12,4 C 23,1 C 0,0 km/h (0 Bft)
08/08/2012 21:40 22,4 C 53 % 1020,5 hPa 0,0 mm 0,0 km/h (0 Bft) NE 45 0 min 0 W/m 12,3 C 22,4 C 0,0 km/h (0 Bft)
08/08/2012 21:50 21,7 C 54 % 1020,4 hPa 0,0 mm 0,0 km/h (0 Bft) NE 45 0 min 0 W/m 12,0 C 21,7 C 0,0 km/h (0 Bft)
08/08/2012 22:00 21,1 C 55 % 1020,5 hPa 0,0 mm 0,0 km/h (0 Bft) NE 45 0 min 0 W/m 11,7 C 21,1 C 0,0 km/h (0 Bft)
08/08/2012 22:10 20,5 C 57 % 1020,7 hPa 0,0 mm 0,0 km/h (0 Bft) NE 45 0 min 0 W/m 11,7 C 20,5 C 0,0 km/h (0 Bft)
08/08/2012 22:20 20,0 C 59 % 1020,7 hPa 0,0 mm 0,0 km/h (0 Bft) S-SE 157 0 min 0 W/m 11,7 C 20,0 C 0,0 km/h (0 Bft)
08/08/2012 22:30 19,5 C 61 % 1020,7 hPa 0,0 mm 0,0 km/h (0 Bft) S-SE 157 0 min 0 W/m 11,8 C 19,5 C 0,0 km/h (0 Bft)
08/08/2012 22:40 19,1 C 62 % 1020,8 hPa 0,0 mm 0,0 km/h (0 Bft) S-SE 157 0 min 0 W/m 11,6 C 19,1 C 0,0 km/h (0 Bft)
08/08/2012 22:50 18,8 C 62 % 1020,9 hPa 0,0 mm 0,0 km/h (0 Bft) S-SE 157 0 min 0 W/m 11,4 C 18,8 C 0,0 km/h (0 Bft)
_ Min-Heure 07:10 18:20 20:20 - 22:50 - - - - 06:10 07:10 22:50
Minimum _ 10,3 C 36 % 1020,0 hPa - 0,0 km/h (0 Bft) - - - - 8,2 C 10,3 C 0,0 km/h (0 Bft)
_ Max-Heure 18:50 08:20 00:50 22:50 11:20 - - 22:50 22:50 11:00 18:50 13:10
Maximum _ 30,6 C 89 % 1022,7 hPa 0,0 mm 11,5 km/h
E-NE (2 Bft)
- - 0 min 0 W/m 15,1 C 30,6 C 14,8 km/h
E-NE (3 Bft)
Moyenne _ 20,6 C 62 % 1021,7 hPa #0,0 mm 3,0 km/h (1 Bft) E-NE - #0 min. 0 W/m 12,0 C 20,6 C 5,1 km/h (1 Bft)
Saint Bonnet de Bellac- Haute Vienne - France